Regional Weather Roundup
Issued by NWS

Home | Current Version | Previous Version | Graphics & Text | Print | Product List | Glossary Off
Versions: 1 2 3 4 5 6 7 8 9 10 11 12 13 14 15 16 17 18 19 20 21 22 23 24 25 26 27 28 29 30 31 32 33 34 35 36 37 38 39 40 41 42 43 44 45 46 47 48 49 50

000
ASUS43 KTOP 271708
RWRKS

WEATHER ROUNDUP FOR KANSAS
NATIONAL WEATHER SERVICE GOODLAND KS
1100 AM CST SAT DEC 27 2014

NOTE:  "FAIR" INDICATES FEW OR NO CLOUDS BELOW 12,000 FEET WITH NO
SIGNIFICANT WEATHER AND/OR OBSTRUCTIONS TO VISIBILITY.

KSZ001>006-013>018-027>032-041>047-271800-
NORTHWEST KANSAS

CITY           SKY/WX    TMP DP  RH WIND       PRES   REMARKS
GOODLAND       SUNNY     19  12  74 NW17      30.23F WCI   4
HAYS           SUNNY     21   9  58 NW10      30.31R WCI  10
HILL CITY      SUNNY     20  13  74 NW7       30.32R
RUSSELL        SUNNY     23  17  78 NW10      30.31S WCI  12
$$

KSZ061>065-074>080-084>089-271800-
SOUTHWEST KANSAS

CITY           SKY/WX    TMP DP  RH WIND       PRES   REMARKS
DODGE CITY     MOSUNNY   24  16  71 NW8       30.31S
ELKHART          N/A     23  12  62 NW8         N/A
GARDEN CITY    SUNNY     21  14  74 W10       30.30S WCI  10
GREAT BEND     SUNNY     27  16  63 NW9       30.33S
LIBERAL        MOSUNNY   25  16  68 NW10      30.35R WCI  15
PRATT          SUNNY     30  18  59 N14       30.33S WCI  20
$$

KSZ066>073-081>083-090>101-271800-
SOUTHEAST KANSAS

CITY           SKY/WX    TMP DP  RH WIND       PRES   REMARKS
CHANUTE        CLOUDY    31  23  72 NW13      30.32R WCI  21
COFFEYVILLE    CLOUDY    33  25  72 NW10      30.32R WCI  25
HUTCHINSON     SUNNY     30  16  56 N12       30.33F WCI  20
MEDICINE LODGE   N/A     30  16  56 N8        30.36R
NEWTON         MOSUNNY   27  14  59 N10       30.34R WCI  17
PARSONS        CLOUDY    32  24  72 NW12      30.33R WCI  23
WICHITA INTL   MOSUNNY   31  15  52 N14G21    30.34R WCI  21
WICHITA JABRA  MOSUNNY   31  16  54 N14G23    30.33R WCI  21
WICHITA MCCONL MOSUNNY   30  16  55 N12       30.33R WCI  21
WINFIELD       CLOUDY    30  18  60 N13       30.35R WCI  20
$$

KSZ007>012-019>026-033>040-048>060-102>105-271800-
NORTHEAST KANSAS

CITY           SKY/WX    TMP DP  RH WIND       PRES   REMARKS
CONCORDIA      SUNNY     25  19  78 NW10      30.31R WCI  15
EMPORIA        MOSUNNY   29  20  69 NW12G21   30.30R WCI  19
LAWRENCE       CLOUDY    30  22  72 NW12      30.30R WCI  20
MANHATTAN      SUNNY     29  17  61 N8        30.32S
MARYSVILLE     SUNNY     27  19  74 NW13      30.29S WCI  16
OLATHE IND     CLOUDY    30  24  78 W9        30.28R
OLATHE EXE     CLOUDY    30  24  78 VRB7      30.26R
SALINA         SUNNY     29  18  63 NW9       30.34S
TOPEKA BILLARD PTSUNNY   31  21  66 W9        30.30S
TOPEKA FORBES  MOSUNNY   30  20  66 NW13      30.28S WCI  20
$$



USA.gov is the U.S. government's official web portal to all federal, state and local government web resources and services.